Location: Newark
(54.6833°N, 25.2833°E)
Time: 15:25:45
(UTC+00:00)

Tiros 1 despin weight - Pass Details

Date: 18 November 2019
Orbit: 594 x 642 km, 48.2° (Epoch: 13 December)

Event Time Altitude Azimuth Distance (km) Brightness Sun altitude
Rises 14:01:36 0° 247° (WSW) 2,831 ? 0.5°
Reaches altitude 10° 14:04:00 10° 239° (WSW) 1,934 ? 0.2°
Maximum altitude 14:08:02 35° 173° (S) 981 ? -0.2°
Drops below altitude 10° 14:12:07 10° 108° (ESE) 1,958 ? -0.7°
Sets 14:14:34 0° 100° (E) 2,871 ? -1.0°
